Orlando International, FL

10:31 AM EDT on March 26, 2017 (GMT -0400)
Orlando International

Weather History for KMCO - April, 2013

Change the Weather History Date:

Wednesday, April 10, 2013

  Actual Average Record
Temperature  
Mean Temperature 74 °F 70 °F  
Max Temperature 88 °F 82 °F 95 °F (1908)
Min Temperature 60 °F 59 °F 42 °F (1916)
Degree Days  
Heating Degree Days 0 1  
Month to date heating degree days 0 10  
Since 1 July heating degree days 461 568  
Cooling Degree Days 9 6  
Month to date cooling degree days 65 53  
Year to date cooling degree days 316 275  
Growing Degree Days 24 (Base 50)    
Moisture  
Dew Point 64 °F    
Average Humidity 70    
Maximum Humidity 100    
Minimum Humidity 40    
Precipitation  
Precipitation 0.00 in 0.10 in 1.57 in (1956)
Month to date precipitation 0.34 1.03  
Year to date precipitation 2.52 9.53  
Sea Level Pressure  
Sea Level Pressure 30.07 in    
Wind  
Wind Speed 7 mph (ESE)    
Max Wind Speed 18 mph    
Max Gust Speed 23 mph    
Visibility 10 miles    
Events Fog    
T = Trace of Precipitation, MM = Missing Value Source: NWS Daily Summary

Daily Weather History Graph

Daily Weather History Graph

Search for Another Location

Airport or City:

Trip Planner

Search our weather history database for the weather conditions in past years. The results will help you decide how hot, cold, wet, or windy it might be!

Date:

Astronomy

Apr. 10, 2013 Rise Set
Actual Time 7:05 AM EDT 7:48 PM EDT
Civil Twilight 6:41 AM EDT 8:12 PM EDT
Nautical Twilight 6:12 AM EDT 8:40 PM EDT
Astronomical Twilight 5:44 AM EDT 9:09 PM EDT
Moon 7:02 AM EDT (4/10) 8:17 PM EDT (4/10)
Length of Visible Light 13h 31m
Length of Day
12h 43m
New Moon, 0% of the Moon is Illuminated
Apr 10
New Moon
Apr 18
First Quarter
Apr 25
Full
May 2
Last Quarter
May 9
New

Hourly Weather History & Observations

Time (EDT) Temp. Heat Index Dew Point Humidity Pressure Visibility Wind Dir Wind Speed Gust Speed Precip Events Conditions
12:53 AM 64.0 °F - 60.1 °F 87% 30.15 in 10.0 mi East 3.5 mph - N/A   Scattered Clouds
1:53 AM 63.0 °F - 60.1 °F 90% 30.13 in 10.0 mi East 4.6 mph - N/A   Mostly Cloudy
2:53 AM 62.1 °F - 60.1 °F 93% 30.10 in 10.0 mi East 4.6 mph - N/A   Scattered Clouds
3:53 AM 61.0 °F - 60.1 °F 97% 30.10 in 10.0 mi Calm Calm - N/A   Scattered Clouds
4:53 AM 61.0 °F - 60.1 °F 97% 30.10 in 10.0 mi Calm Calm - N/A   Partly Cloudy
5:53 AM 61.0 °F - 59.0 °F 93% 30.09 in 10.0 mi Calm Calm - N/A Fog Patches of Fog
6:53 AM 61.0 °F - 60.1 °F 97% 30.09 in 10.0 mi East 3.5 mph - N/A Fog Patches of Fog
7:53 AM 64.9 °F - 63.0 °F 93% 30.10 in 10.0 mi Calm Calm - N/A   Scattered Clouds
8:53 AM 70.0 °F - 64.9 °F 84% 30.11 in 10.0 mi East 4.6 mph - N/A   Partly Cloudy
9:53 AM 75.9 °F - 66.0 °F 71% 30.11 in 10.0 mi SSE 9.2 mph - N/A   Scattered Clouds
10:53 AM 78.1 °F - 64.9 °F 64% 30.11 in 10.0 mi South 9.2 mph - N/A   Scattered Clouds
11:53 AM 81.0 °F 82.2 °F 63.0 °F 54% 30.11 in 10.0 mi Variable 6.9 mph - N/A   Scattered Clouds
12:53 PM 82.9 °F 83.3 °F 61.0 °F 47% 30.09 in 10.0 mi Variable 6.9 mph - N/A   Scattered Clouds
1:53 PM 84.9 °F 84.8 °F 60.1 °F 43% 30.07 in 10.0 mi Variable 5.8 mph - N/A   Mostly Cloudy
2:53 PM 88.0 °F 87.9 °F 61.0 °F 40% 30.05 in 10.0 mi ESE 6.9 mph - N/A   Mostly Cloudy
3:53 PM 86.0 °F 87.3 °F 64.0 °F 48% 30.04 in 10.0 mi ENE 8.1 mph - N/A   Scattered Clouds
4:53 PM 84.9 °F 86.6 °F 64.9 °F 51% 30.01 in 10.0 mi ESE 15.0 mph - N/A   Scattered Clouds
5:53 PM 82.9 °F 85.0 °F 66.0 °F 56% 30.01 in 10.0 mi East 15.0 mph - N/A   Scattered Clouds
6:53 PM 80.1 °F 82.3 °F 66.9 °F 64% 30.01 in 10.0 mi ESE 15.0 mph - N/A   Scattered Clouds
7:53 PM 75.9 °F - 68.0 °F 76% 30.01 in 10.0 mi ESE 13.8 mph - N/A   Mostly Cloudy
8:53 PM 75.0 °F - 68.0 °F 79% 30.03 in 10.0 mi ESE 10.4 mph - N/A   Scattered Clouds
9:53 PM 73.0 °F - 69.1 °F 87% 30.04 in 10.0 mi ESE 10.4 mph - N/A   Partly Cloudy
10:53 PM 73.0 °F - 69.1 °F 87% 30.03 in 10.0 mi ESE 8.1 mph - N/A   Scattered Clouds
11:53 PM 73.0 °F - 70.0 °F 90% 30.03 in 10.0 mi SE 9.2 mph - N/A   Mostly Cloudy